Location: Unspecified
(45.4615°N, 74.0512°W)
Time: 04:45:12
(UTC-04:00)

Cosmos 1674 - Visible Passes

Search period start: 22 September 2018 00:00
Search period end: 02 October 2018 00:00
Orbit: 497 x 520 km, 82.5° (Epoch: 20 September)

Date Brightness Start Highest point End Pass type
(mag) Time Alt. Az. Time Alt. Az. Time Alt. Az.
22 Sep 2.6 20:57:44 10° N 21:01:32 85° NW 21:01:32 85° NW visible
23 Sep 2.5 20:40:30 10° N 20:44:23 72° E 20:44:47 64° SE visible
24 Sep 2.8 20:23:17 10° N 20:27:06 55° ENE 20:28:05 41° SE visible
24 Sep 5.8 22:00:47 10° WNW 22:02:09 12° W 22:02:59 11° W visible
25 Sep 3.1 20:06:07 10° N 20:09:49 42° ENE 20:11:28 26° SE visible
25 Sep 5.5 21:42:48 10° NW 21:45:00 15° W 21:46:22 13° WSW visible
26 Sep 3.4 19:48:59 10° N 19:52:31 33° ENE 19:54:56 17° SE visible
26 Sep 5.3 21:25:07 10° NW 21:27:50 19° W 21:29:50 13° WSW visible
27 Sep 3.7 19:31:53 10° NNE 19:35:11 26° ENE 19:38:28 10° SE visible
27 Sep 5.0 21:07:33 10° NW 21:10:39 23° W 21:13:27 11° SW visible
28 Sep 4.0 19:14:52 10° NNE 19:17:52 21° ENE 19:20:50 10° ESE visible
28 Sep 4.6 20:50:04 10° NNW 20:53:27 29° W 20:56:49 10° SSW visible
29 Sep 4.2 20:32:39 10° NNW 20:36:15 37° W 20:39:49 10° SSW visible
30 Sep 3.7 20:15:17 10° NNW 20:19:01 49° W 20:22:44 10° S visible
01 Oct 3.1 19:57:57 10° NNW 20:01:48 64° W 20:05:35 10° S visible
